owner,sensor,date,latitude,longitude,vertical_datum,sea_water_practical_salinity,qcFlag 
ENP,ioos.station.NOAA.NDBC:GBIF1:1,2019-05-01T00:00:00Z,25.3780,-81.0290,1.5,17.61,11111222 
ENP,ioos.station.NOAA.NDBC:GBIF1:1,2019-05-01T01:00:00Z,25.3780,-81.0290,1.5,16.33,11111222 
ENP,ioos.station.NOAA.NDBC:GBIF1:1,2019-05-01T02:00:00Z,25.3780,-81.0290,1.5,15.86,11111222 
ENP,ioos.station.NOAA.NDBC:GBIF1:1,2019-05-01T03:00:00Z,25.3780,-81.0290,1.5,16.5,11111222 
ENP,ioos.station.NOAA.NDBC:GBIF1:1,2019-05-01T04:00:00Z,25.3780,-81.0290,1.5,19.58,11111222 
ENP,ioos.station.NOAA.NDBC:GBIF1:1,2019-05-01T05:00:00Z,25.3780,-81.0290,1.5,22.27,11111222 
ENP,ioos.station.NOAA.NDBC:GBIF1:1,2019-05-01T09:00:00Z,25.3780,-81.0290,1.5,21.51,11111222 
ENP,ioos.station.NOAA.NDBC:GBIF1:1,2019-05-01T10:00:00Z,25.3780,-81.0290,1.5,19.24,11111222 
ENP,ioos.station.NOAA.NDBC:GBIF1:1,2019-05-01T11:00:00Z,25.3780,-81.0290,1.5,17.75,11111222 
ENP,ioos.station.NOAA.NDBC:GBIF1:1,2019-05-01T12:00:00Z,25.3780,-81.0290,1.5,16.53,11111222 
ENP,ioos.station.NOAA.NDBC:GBIF1:1,2019-05-01T13:00:00Z,25.3780,-81.0290,1.5,15.6,11111222 
ENP,ioos.station.NOAA.NDBC:GBIF1:1,2019-05-01T14:00:00Z,25.3780,-81.0290,1.5,15.26,11111222 
ENP,ioos.station.NOAA.NDBC:GBIF1:1,2019-05-01T15:00:00Z,25.3780,-81.0290,1.5,15.4,11111222 
ENP,ioos.station.NOAA.NDBC:GBIF1:1,2019-05-01T16:00:00Z,25.3780,-81.0290,1.5,18.7,11111222 
ENP,ioos.station.NOAA.NDBC:GBIF1:1,2019-05-01T17:00:00Z,25.3780,-81.0290,1.5,22.2,11111222 
ENP,ioos.station.NOAA.NDBC:GBIF1:1,2019-05-01T18:00:00Z,25.3780,-81.0290,1.5,24.16,11111222 
ENP,ioos.station.NOAA.NDBC:GBIF1:1,2019-05-01T19:00:00Z,25.3780,-81.0290,1.5,24.65,11111222 
ENP,ioos.station.NOAA.NDBC:GBIF1:1,2019-05-01T20:00:00Z,25.3780,-81.0290,1.5,22.34,11111222 
ENP,ioos.station.NOAA.NDBC:GBIF1:1,2019-05-01T21:00:00Z,25.3780,-81.0290,1.5,22.55,11111222 
ENP,ioos.station.NOAA.NDBC:GBIF1:1,2019-05-01T22:00:00Z,25.3780,-81.0290,1.5,20.82,11111222 
ENP,ioos.station.NOAA.NDBC:GBIF1:1,2019-05-01T23:00:00Z,25.3780,-81.0290,1.5,18.9,11111222 
ENP,ioos.station.NOAA.NDBC:GBIF1:1,2019-05-02T00:00:00Z,25.3780,-81.0290,1.5,17.54,11111222 
ENP,ioos.station.NOAA.NDBC:GBIF1:1,2019-05-02T01:00:00Z,25.3780,-81.0290,1.5,16.67,11111222 
ENP,ioos.station.NOAA.NDBC:GBIF1:1,2019-05-02T02:00:00Z,25.3780,-81.0290,1.5,15.4,11111222 
ENP,ioos.station.NOAA.NDBC:GBIF1:1,2019-05-02T03:00:00Z,25.3780,-81.0290,1.5,15.8,11111222 
ENP,ioos.station.NOAA.NDBC:GBIF1:1,2019-05-02T04:00:00Z,25.3780,-81.0290,1.5,19.38,11111222 
ENP,ioos.station.NOAA.NDBC:GBIF1:1,2019-05-02T05:00:00Z,25.3780,-81.0290,1.5,22.41,11111222 
ENP,ioos.station.NOAA.NDBC:GBIF1:1,2019-05-02T07:00:00Z,25.3780,-81.0290,1.5,25.2,11111222 
ENP,ioos.station.NOAA.NDBC:GBIF1:1,2019-05-02T08:00:00Z,25.3780,-81.0290,1.5,25.49,11111222 
ENP,ioos.station.NOAA.NDBC:GBIF1:1,2019-05-02T09:00:00Z,25.3780,-81.0290,1.5,22.9,11111222 
ENP,ioos.station.NOAA.NDBC:GBIF1:1,2019-05-02T10:00:00Z,25.3780,-81.0290,1.5,22.69,11111222 
ENP,ioos.station.NOAA.NDBC:GBIF1:1,2019-05-02T11:00:00Z,25.3780,-81.0290,1.5,23.39,11111222 
ENP,ioos.station.NOAA.NDBC:GBIF1:1,2019-05-02T12:00:00Z,25.3780,-81.0290,1.5,20.06,11111222 
ENP,ioos.station.NOAA.NDBC:GBIF1:1,2019-05-02T13:00:00Z,25.3780,-81.0290,1.5,18.83,11111222 
ENP,ioos.station.NOAA.NDBC:GBIF1:1,2019-05-02T14:00:00Z,25.3780,-81.0290,1.5,17.88,11111222 
ENP,ioos.station.NOAA.NDBC:GBIF1:1,2019-05-02T15:00:00Z,25.3780,-81.0290,1.5,19.72,11111222 
ENP,ioos.station.NOAA.NDBC:GBIF1:1,2019-05-02T16:00:00Z,25.3780,-81.0290,1.5,22.97,11111222 
ENP,ioos.station.NOAA.NDBC:GBIF1:1,2019-05-02T17:00:00Z,25.3780,-81.0290,1.5,25.49,11111222 
ENP,ioos.station.NOAA.NDBC:GBIF1:1,2019-05-02T18:00:00Z,25.3780,-81.0290,1.5,26.91,11111222 
ENP,ioos.station.NOAA.NDBC:GBIF1:1,2019-05-02T19:00:00Z,25.3780,-81.0290,1.5,27.77,11111222 
ENP,ioos.station.NOAA.NDBC:GBIF1:1,2019-05-02T20:00:00Z,25.3780,-81.0290,1.5,28.12,11111222 
ENP,ioos.station.NOAA.NDBC:GBIF1:1,2019-05-02T21:00:00Z,25.3780,-81.0290,1.5,27.62,11111222 
ENP,ioos.station.NOAA.NDBC:GBIF1:1,2019-05-02T22:00:00Z,25.3780,-81.0290,1.5,26.56,11111222 
ENP,ioos.station.NOAA.NDBC:GBIF1:1,2019-05-02T23:00:00Z,25.3780,-81.0290,1.5,25.35,11111222 
ENP,ioos.station.NOAA.NDBC:GBIF1:1,2019-05-03T00:00:00Z,25.3780,-81.0290,1.5,24.93,11111222 
ENP,ioos.station.NOAA.NDBC:GBIF1:1,2019-05-03T01:00:00Z,25.3780,-81.0290,1.5,23.32,11111222 
ENP,ioos.station.NOAA.NDBC:GBIF1:1,2019-05-03T02:00:00Z,25.3780,-81.0290,1.5,22.41,11111222 
ENP,ioos.station.NOAA.NDBC:GBIF1:1,2019-05-03T03:00:00Z,25.3780,-81.0290,1.5,21.0,11111222 
ENP,ioos.station.NOAA.NDBC:GBIF1:1,2019-05-03T04:00:00Z,25.3780,-81.0290,1.5,23.11,11111222 
ENP,ioos.station.NOAA.NDBC:GBIF1:1,2019-05-03T05:00:00Z,25.3780,-81.0290,1.5,25.42,11111222 
ENP,ioos.station.NOAA.NDBC:GBIF1:1,2019-05-03T10:00:00Z,25.3780,-81.0290,1.5,27.5,11111222 
ENP,ioos.station.NOAA.NDBC:GBIF1:1,2019-05-03T11:00:00Z,25.3780,-81.0290,1.5,26.06,11111222 
ENP,ioos.station.NOAA.NDBC:GBIF1:1,2019-05-03T12:00:00Z,25.3780,-81.0290,1.5,25.14,11111222 
ENP,ioos.station.NOAA.NDBC:GBIF1:1,2019-05-03T13:00:00Z,25.3780,-81.0290,1.5,24.44,11111222 
ENP,ioos.station.NOAA.NDBC:GBIF1:1,2019-05-03T14:00:00Z,25.3780,-81.0290,1.5,24.0,11111222 
ENP,ioos.station.NOAA.NDBC:GBIF1:1,2019-05-03T15:00:00Z,25.3780,-81.0290,1.5,23.8,11111222 
ENP,ioos.station.NOAA.NDBC:GBIF1:1,2019-05-03T16:00:00Z,25.3780,-81.0290,1.5,25.42,11111222 
ENP,ioos.station.NOAA.NDBC:GBIF1:1,2019-05-03T17:00:00Z,25.3780,-81.0290,1.5,26.77,11111222 
ENP,ioos.station.NOAA.NDBC:GBIF1:1,2019-05-03T18:00:00Z,25.3780,-81.0290,1.5,28.1,11111222 
ENP,ioos.station.NOAA.NDBC:GBIF1:1,2019-05-03T19:00:00Z,25.3780,-81.0290,1.5,28.98,11111222 
ENP,ioos.station.NOAA.NDBC:GBIF1:1,2019-05-03T20:00:00Z,25.3780,-81.0290,1.5,29.41,11111222 
ENP,ioos.station.NOAA.NDBC:GBIF1:1,2019-05-03T21:00:00Z,25.3780,-81.0290,1.5,29.49,11111222 
ENP,ioos.station.NOAA.NDBC:GBIF1:1,2019-05-03T22:00:00Z,25.3780,-81.0290,1.5,28.91,11111222 
ENP,ioos.station.NOAA.NDBC:GBIF1:1,2019-05-03T23:00:00Z,25.3780,-81.0290,1.5,27.9,11111222 
ENP,ioos.station.NOAA.NDBC:GBIF1:1,2019-05-04T00:00:00Z,25.3780,-81.0290,1.5,27.05,11111222 
ENP,ioos.station.NOAA.NDBC:GBIF1:1,2019-05-04T01:00:00Z,25.3780,-81.0290,1.5,25.63,11111222 
ENP,ioos.station.NOAA.NDBC:GBIF1:1,2019-05-04T02:00:00Z,25.3780,-81.0290,1.5,24.51,11111222 
ENP,ioos.station.NOAA.NDBC:GBIF1:1,2019-05-04T03:00:00Z,25.3780,-81.0290,1.5,24.2,11111222 
ENP,ioos.station.NOAA.NDBC:GBIF1:1,2019-05-04T04:00:00Z,25.3780,-81.0290,1.5,22.48,11111222 
ENP,ioos.station.NOAA.NDBC:GBIF1:1,2019-05-04T05:00:00Z,25.3780,-81.0290,1.5,24.72,11111222 
ENP,ioos.station.NOAA.NDBC:GBIF1:1,2019-05-04T06:00:00Z,25.3780,-81.0290,1.5,26.7,11111222 
ENP,ioos.station.NOAA.NDBC:GBIF1:1,2019-05-04T07:00:00Z,25.3780,-81.0290,1.5,27.98,11111222 
ENP,ioos.station.NOAA.NDBC:GBIF1:1,2019-05-04T08:00:00Z,25.3780,-81.0290,1.5,28.91,11111222 
ENP,ioos.station.NOAA.NDBC:GBIF1:1,2019-05-04T09:00:00Z,25.3780,-81.0290,1.5,29.13,11111222 
ENP,ioos.station.NOAA.NDBC:GBIF1:1,2019-05-04T10:00:00Z,25.3780,-81.0290,1.5,28.77,11111222 
ENP,ioos.station.NOAA.NDBC:GBIF1:1,2019-05-04T11:00:00Z,25.3780,-81.0290,1.5,27.41,11111222 
ENP,ioos.station.NOAA.NDBC:GBIF1:1,2019-05-04T12:00:00Z,25.3780,-81.0290,1.5,26.06,11111222 
ENP,ioos.station.NOAA.NDBC:GBIF1:1,2019-05-04T13:00:00Z,25.3780,-81.0290,1.5,25.56,11111222 
ENP,ioos.station.NOAA.NDBC:GBIF1:1,2019-05-04T14:00:00Z,25.3780,-81.0290,1.5,24.16,11111222 
ENP,ioos.station.NOAA.NDBC:GBIF1:1,2019-05-04T15:00:00Z,25.3780,-81.0290,1.5,23.74,11111222 
ENP,ioos.station.NOAA.NDBC:GBIF1:1,2019-05-04T16:00:00Z,25.3780,-81.0290,1.5,24.86,11111222 
ENP,ioos.station.NOAA.NDBC:GBIF1:1,2019-05-04T17:00:00Z,25.3780,-81.0290,1.5,26.7,11111222 
ENP,ioos.station.NOAA.NDBC:GBIF1:1,2019-05-04T19:00:00Z,25.3780,-81.0290,1.5,29.0,11111222 
ENP,ioos.station.NOAA.NDBC:GBIF1:1,2019-05-04T20:00:00Z,25.3780,-81.0290,1.5,29.7,11111222 
ENP,ioos.station.NOAA.NDBC:GBIF1:1,2019-05-04T21:00:00Z,25.3780,-81.0290,1.5,29.99,11111222 
ENP,ioos.station.NOAA.NDBC:GBIF1:1,2019-05-04T22:00:00Z,25.3780,-81.0290,1.5,29.85,11111222 
ENP,ioos.station.NOAA.NDBC:GBIF1:1,2019-05-04T23:00:00Z,25.3780,-81.0290,1.5,29.27,11111222 
ENP,ioos.station.NOAA.NDBC:GBIF1:1,2019-05-05T00:00:00Z,25.3780,-81.0290,1.5,28.19,11111222 
ENP,ioos.station.NOAA.NDBC:GBIF1:1,2019-05-05T01:00:00Z,25.3780,-81.0290,1.5,26.77,11111222 
ENP,ioos.station.NOAA.NDBC:GBIF1:1,2019-05-05T02:00:00Z,25.3780,-81.0290,1.5,25.42,11111222 
ENP,ioos.station.NOAA.NDBC:GBIF1:1,2019-05-05T03:00:00Z,25.3780,-81.0290,1.5,24.6,11111222 
ENP,ioos.station.NOAA.NDBC:GBIF1:1,2019-05-05T04:00:00Z,25.3780,-81.0290,1.5,23.6,11111222 
ENP,ioos.station.NOAA.NDBC:GBIF1:1,2019-05-05T05:00:00Z,25.3780,-81.0290,1.5,24.23,11111222 
ENP,ioos.station.NOAA.NDBC:GBIF1:1,2019-05-05T06:00:00Z,25.3780,-81.0290,1.5,26.63,11111222 
ENP,ioos.station.NOAA.NDBC:GBIF1:1,2019-05-05T07:00:00Z,25.3780,-81.0290,1.5,27.84,11111222 
ENP,ioos.station.NOAA.NDBC:GBIF1:1,2019-05-05T08:00:00Z,25.3780,-81.0290,1.5,29.2,11111222 
ENP,ioos.station.NOAA.NDBC:GBIF1:1,2019-05-05T09:00:00Z,25.3780,-81.0290,1.5,29.7,11111222 
ENP,ioos.station.NOAA.NDBC:GBIF1:1,2019-05-05T10:00:00Z,25.3780,-81.0290,1.5,29.85,11111222 
ENP,ioos.station.NOAA.NDBC:GBIF1:1,2019-05-05T11:00:00Z,25.3780,-81.0290,1.5,29.41,11111222 
ENP,ioos.station.NOAA.NDBC:GBIF1:1,2019-05-05T12:00:00Z,25.3780,-81.0290,1.5,28.34,11111222 
ENP,ioos.station.NOAA.NDBC:GBIF1:1,2019-05-05T13:00:00Z,25.3780,-81.0290,1.5,27.2,11111222 
ENP,ioos.station.NOAA.NDBC:GBIF1:1,2019-05-05T14:00:00Z,25.3780,-81.0290,1.5,26.2,11111222 
ENP,ioos.station.NOAA.NDBC:GBIF1:1,2019-05-05T15:00:00Z,25.3780,-81.0290,1.5,26.84,11111222 
ENP,ioos.station.NOAA.NDBC:GBIF1:1,2019-05-05T16:00:00Z,25.3780,-81.0290,1.5,26.84,11111222 
ENP,ioos.station.NOAA.NDBC:GBIF1:1,2019-05-05T17:00:00Z,25.3780,-81.0290,1.5,27.55,11111222 
ENP,ioos.station.NOAA.NDBC:GBIF1:1,2019-05-05T19:00:00Z,25.3780,-81.0290,1.5,29.8,11111222 
ENP,ioos.station.NOAA.NDBC:GBIF1:1,2019-05-05T20:00:00Z,25.3780,-81.0290,1.5,30.35,11111222 
ENP,ioos.station.NOAA.NDBC:GBIF1:1,2019-05-05T21:00:00Z,25.3780,-81.0290,1.5,30.71,11111222 
ENP,ioos.station.NOAA.NDBC:GBIF1:1,2019-05-05T22:00:00Z,25.3780,-81.0290,1.5,30.79,11111222 
ENP,ioos.station.NOAA.NDBC:GBIF1:1,2019-05-05T23:00:00Z,25.3780,-81.0290,1.5,30.28,11111222 
ENP,ioos.station.NOAA.NDBC:GBIF1:1,2019-05-06T00:00:00Z,25.3780,-81.0290,1.5,29.77,11111222 
ENP,ioos.station.NOAA.NDBC:GBIF1:1,2019-05-06T01:00:00Z,25.3780,-81.0290,1.5,29.41,11111222 
ENP,ioos.station.NOAA.NDBC:GBIF1:1,2019-05-06T02:00:00Z,25.3780,-81.0290,1.5,27.98,11111222 
ENP,ioos.station.NOAA.NDBC:GBIF1:1,2019-05-06T03:00:00Z,25.3780,-81.0290,1.5,26.3,11111222 
ENP,ioos.station.NOAA.NDBC:GBIF1:1,2019-05-06T04:00:00Z,25.3780,-81.0290,1.5,25.85,11111222 
ENP,ioos.station.NOAA.NDBC:GBIF1:1,2019-05-06T05:00:00Z,25.3780,-81.0290,1.5,25.92,11111222 
ENP,ioos.station.NOAA.NDBC:GBIF1:1,2019-05-06T06:00:00Z,25.3780,-81.0290,1.5,26.27,11111222 
ENP,ioos.station.NOAA.NDBC:GBIF1:1,2019-05-06T07:00:00Z,25.3780,-81.0290,1.5,27.84,11111222 
ENP,ioos.station.NOAA.NDBC:GBIF1:1,2019-05-06T08:00:00Z,25.3780,-81.0290,1.5,28.7,11111222 
ENP,ioos.station.NOAA.NDBC:GBIF1:1,2019-05-06T09:00:00Z,25.3780,-81.0290,1.5,29.7,11111222 
ENP,ioos.station.NOAA.NDBC:GBIF1:1,2019-05-06T10:00:00Z,25.3780,-81.0290,1.5,30.21,11111222 
ENP,ioos.station.NOAA.NDBC:GBIF1:1,2019-05-06T11:00:00Z,25.3780,-81.0290,1.5,30.35,11111222 
ENP,ioos.station.NOAA.NDBC:GBIF1:1,2019-05-06T12:00:00Z,25.3780,-81.0290,1.5,29.92,11111222 
ENP,ioos.station.NOAA.NDBC:GBIF1:1,2019-05-06T13:00:00Z,25.3780,-81.0290,1.5,28.84,11111222 
ENP,ioos.station.NOAA.NDBC:GBIF1:1,2019-05-06T14:00:00Z,25.3780,-81.0290,1.5,28.05,11111222 
ENP,ioos.station.NOAA.NDBC:GBIF1:1,2019-05-06T15:00:00Z,25.3780,-81.0290,1.5,26.91,11111222 
ENP,ioos.station.NOAA.NDBC:GBIF1:1,2019-05-06T16:00:00Z,25.3780,-81.0290,1.5,27.77,11111222 
ENP,ioos.station.NOAA.NDBC:GBIF1:1,2019-05-06T17:00:00Z,25.3780,-81.0290,1.5,28.12,11111222 
ENP,ioos.station.NOAA.NDBC:GBIF1:1,2019-05-06T18:00:00Z,25.3780,-81.0290,1.5,28.62,11111222 
ENP,ioos.station.NOAA.NDBC:GBIF1:1,2019-05-06T19:00:00Z,25.3780,-81.0290,1.5,29.7,11111222 
ENP,ioos.station.NOAA.NDBC:GBIF1:1,2019-05-06T20:00:00Z,25.3780,-81.0290,1.5,30.5,11111222 
ENP,ioos.station.NOAA.NDBC:GBIF1:1,2019-05-06T21:00:00Z,25.3780,-81.0290,1.5,31.0,11111222 
ENP,ioos.station.NOAA.NDBC:GBIF1:1,2019-05-06T22:00:00Z,25.3780,-81.0290,1.5,31.08,11111222 
ENP,ioos.station.NOAA.NDBC:GBIF1:1,2019-05-06T23:00:00Z,25.3780,-81.0290,1.5,29.99,11111222 
ENP,ioos.station.NOAA.NDBC:GBIF1:1,2019-05-07T00:00:00Z,25.3780,-81.0290,1.5,28.84,11111222 
ENP,ioos.station.NOAA.NDBC:GBIF1:1,2019-05-07T01:00:00Z,25.3780,-81.0290,1.5,28.1,11111222 
ENP,ioos.station.NOAA.NDBC:GBIF1:1,2019-05-07T02:00:00Z,25.3780,-81.0290,1.5,26.48,11111222 
ENP,ioos.station.NOAA.NDBC:GBIF1:1,2019-05-07T03:00:00Z,25.3780,-81.0290,1.5,24.1,11111222 
ENP,ioos.station.NOAA.NDBC:GBIF1:1,2019-05-07T04:00:00Z,25.3780,-81.0290,1.5,22.62,11111222 
ENP,ioos.station.NOAA.NDBC:GBIF1:1,2019-05-07T05:00:00Z,25.3780,-81.0290,1.5,24.44,11111222 
ENP,ioos.station.NOAA.NDBC:GBIF1:1,2019-05-07T06:00:00Z,25.3780,-81.0290,1.5,24.23,11111222 
ENP,ioos.station.NOAA.NDBC:GBIF1:1,2019-05-07T07:00:00Z,25.3780,-81.0290,1.5,25.0,11111222 
ENP,ioos.station.NOAA.NDBC:GBIF1:1,2019-05-07T08:00:00Z,25.3780,-81.0290,1.5,27.48,11111222 
ENP,ioos.station.NOAA.NDBC:GBIF1:1,2019-05-07T09:00:00Z,25.3780,-81.0290,1.5,28.55,11111222 
ENP,ioos.station.NOAA.NDBC:GBIF1:1,2019-05-07T10:00:00Z,25.3780,-81.0290,1.5,29.56,11111222 
ENP,ioos.station.NOAA.NDBC:GBIF1:1,2019-05-07T11:00:00Z,25.3780,-81.0290,1.5,29.92,11111222 
ENP,ioos.station.NOAA.NDBC:GBIF1:1,2019-05-07T12:00:00Z,25.3780,-81.0290,1.5,29.7,11111222 
ENP,ioos.station.NOAA.NDBC:GBIF1:1,2019-05-07T13:00:00Z,25.3780,-81.0290,1.5,28.55,11111222 
ENP,ioos.station.NOAA.NDBC:GBIF1:1,2019-05-07T14:00:00Z,25.3780,-81.0290,1.5,27.2,11111222 
ENP,ioos.station.NOAA.NDBC:GBIF1:1,2019-05-07T15:00:00Z,25.3780,-81.0290,1.5,25.42,11111222 
ENP,ioos.station.NOAA.NDBC:GBIF1:1,2019-05-07T16:00:00Z,25.3780,-81.0290,1.5,25.85,11111222 
ENP,ioos.station.NOAA.NDBC:GBIF1:1,2019-05-07T17:00:00Z,25.3780,-81.0290,1.5,26.06,11111222 
ENP,ioos.station.NOAA.NDBC:GBIF1:1,2019-05-07T18:00:00Z,25.3780,-81.0290,1.5,27.12,11111222 
ENP,ioos.station.NOAA.NDBC:GBIF1:1,2019-05-07T19:00:00Z,25.3780,-81.0290,1.5,28.27,11111222 
ENP,ioos.station.NOAA.NDBC:GBIF1:1,2019-05-07T20:00:00Z,25.3780,-81.0290,1.5,29.41,11111222 
ENP,ioos.station.NOAA.NDBC:GBIF1:1,2019-05-07T21:00:00Z,25.3780,-81.0290,1.5,30.35,11111222 
ENP,ioos.station.NOAA.NDBC:GBIF1:1,2019-05-07T22:00:00Z,25.3780,-81.0290,1.5,30.71,11111222 
ENP,ioos.station.NOAA.NDBC:GBIF1:1,2019-05-07T23:00:00Z,25.3780,-81.0290,1.5,30.71,11111222 
ENP,ioos.station.NOAA.NDBC:GBIF1:1,2019-05-08T00:00:00Z,25.3780,-81.0290,1.5,30.21,11111222 
ENP,ioos.station.NOAA.NDBC:GBIF1:1,2019-05-08T01:00:00Z,25.3780,-81.0290,1.5,29.13,11111222 
ENP,ioos.station.NOAA.NDBC:GBIF1:1,2019-05-08T02:00:00Z,25.3780,-81.0290,1.5,27.91,11111222 
ENP,ioos.station.NOAA.NDBC:GBIF1:1,2019-05-08T03:00:00Z,25.3780,-81.0290,1.5,25.9,11111222 
ENP,ioos.station.NOAA.NDBC:GBIF1:1,2019-05-08T04:00:00Z,25.3780,-81.0290,1.5,24.3,11111222 
ENP,ioos.station.NOAA.NDBC:GBIF1:1,2019-05-08T05:00:00Z,25.3780,-81.0290,1.5,23.53,11111222 
ENP,ioos.station.NOAA.NDBC:GBIF1:1,2019-05-08T06:00:00Z,25.3780,-81.0290,1.5,22.97,11111222 
ENP,ioos.station.NOAA.NDBC:GBIF1:1,2019-05-08T07:00:00Z,25.3780,-81.0290,1.5,22.27,11111222 
ENP,ioos.station.NOAA.NDBC:GBIF1:1,2019-05-08T08:00:00Z,25.3780,-81.0290,1.5,24.02,11111222 
ENP,ioos.station.NOAA.NDBC:GBIF1:1,2019-05-08T09:00:00Z,25.3780,-81.0290,1.5,26.63,11111222 
ENP,ioos.station.NOAA.NDBC:GBIF1:1,2019-05-08T10:00:00Z,25.3780,-81.0290,1.5,28.12,11111222 
ENP,ioos.station.NOAA.NDBC:GBIF1:1,2019-05-08T11:00:00Z,25.3780,-81.0290,1.5,29.27,11111222 
ENP,ioos.station.NOAA.NDBC:GBIF1:1,2019-05-08T12:00:00Z,25.3780,-81.0290,1.5,29.56,11111222 
ENP,ioos.station.NOAA.NDBC:GBIF1:1,2019-05-08T13:00:00Z,25.3780,-81.0290,1.5,28.84,11111222 
ENP,ioos.station.NOAA.NDBC:GBIF1:1,2019-05-08T14:00:00Z,25.3780,-81.0290,1.5,27.41,11111222 
ENP,ioos.station.NOAA.NDBC:GBIF1:1,2019-05-08T15:00:00Z,25.3780,-81.0290,1.5,25.85,11111222 
ENP,ioos.station.NOAA.NDBC:GBIF1:1,2019-05-08T16:00:00Z,25.3780,-81.0290,1.5,25.21,11111222 
ENP,ioos.station.NOAA.NDBC:GBIF1:1,2019-05-08T17:00:00Z,25.3780,-81.0290,1.5,25.07,11111222 
ENP,ioos.station.NOAA.NDBC:GBIF1:1,2019-05-08T18:00:00Z,25.3780,-81.0290,1.5,25.63,11111222 
ENP,ioos.station.NOAA.NDBC:GBIF1:1,2019-05-08T19:00:00Z,25.3780,-81.0290,1.5,26.91,11111222 
ENP,ioos.station.NOAA.NDBC:GBIF1:1,2019-05-08T20:00:00Z,25.3780,-81.0290,1.5,28.12,11111222 
ENP,ioos.station.NOAA.NDBC:GBIF1:1,2019-05-08T21:00:00Z,25.3780,-81.0290,1.5,29.49,11111222 
ENP,ioos.station.NOAA.NDBC:GBIF1:1,2019-05-08T22:00:00Z,25.3780,-81.0290,1.5,30.21,11111222 
ENP,ioos.station.NOAA.NDBC:GBIF1:1,2019-05-08T23:00:00Z,25.3780,-81.0290,1.5,30.5,11111222 
ENP,ioos.station.NOAA.NDBC:GBIF1:1,2019-05-09T00:00:00Z,25.3780,-81.0290,1.5,29.92,11111222 
ENP,ioos.station.NOAA.NDBC:GBIF1:1,2019-05-09T01:00:00Z,25.3780,-81.0290,1.5,28.7,11111222 
ENP,ioos.station.NOAA.NDBC:GBIF1:1,2019-05-09T02:00:00Z,25.3780,-81.0290,1.5,26.7,11111222 
ENP,ioos.station.NOAA.NDBC:GBIF1:1,2019-05-09T03:00:00Z,25.3780,-81.0290,1.5,25.1,11111222 
ENP,ioos.station.NOAA.NDBC:GBIF1:1,2019-05-09T04:00:00Z,25.3780,-81.0290,1.5,22.62,11111222 
ENP,ioos.station.NOAA.NDBC:GBIF1:1,2019-05-09T05:00:00Z,25.3780,-81.0290,1.5,19.79,11111222 
ENP,ioos.station.NOAA.NDBC:GBIF1:1,2019-05-09T06:00:00Z,25.3780,-81.0290,1.5,18.76,11111222 
ENP,ioos.station.NOAA.NDBC:GBIF1:1,2019-05-09T07:00:00Z,25.3780,-81.0290,1.5,20.2,11111222 
ENP,ioos.station.NOAA.NDBC:GBIF1:1,2019-05-09T08:00:00Z,25.3780,-81.0290,1.5,20.48,11111222 
ENP,ioos.station.NOAA.NDBC:GBIF1:1,2019-05-09T09:00:00Z,25.3780,-81.0290,1.5,21.51,11111222 
ENP,ioos.station.NOAA.NDBC:GBIF1:1,2019-05-09T10:00:00Z,25.3780,-81.0290,1.5,24.09,11111222 
ENP,ioos.station.NOAA.NDBC:GBIF1:1,2019-05-09T11:00:00Z,25.3780,-81.0290,1.5,25.78,11111222 
ENP,ioos.station.NOAA.NDBC:GBIF1:1,2019-05-09T12:00:00Z,25.3780,-81.0290,1.5,27.05,11111222 
ENP,ioos.station.NOAA.NDBC:GBIF1:1,2019-05-09T13:00:00Z,25.3780,-81.0290,1.5,27.69,11111222 
ENP,ioos.station.NOAA.NDBC:GBIF1:1,2019-05-09T14:00:00Z,25.3780,-81.0290,1.5,26.2,11111222 
ENP,ioos.station.NOAA.NDBC:GBIF1:1,2019-05-09T15:00:00Z,25.3780,-81.0290,1.5,24.65,11111222 
ENP,ioos.station.NOAA.NDBC:GBIF1:1,2019-05-09T16:00:00Z,25.3780,-81.0290,1.5,22.83,11111222 
ENP,ioos.station.NOAA.NDBC:GBIF1:1,2019-05-09T17:00:00Z,25.3780,-81.0290,1.5,21.5,11111222 
ENP,ioos.station.NOAA.NDBC:GBIF1:1,2019-05-09T18:00:00Z,25.3780,-81.0290,1.5,22.13,11111222 
ENP,ioos.station.NOAA.NDBC:GBIF1:1,2019-05-09T19:00:00Z,25.3780,-81.0290,1.5,22.76,11111222 
ENP,ioos.station.NOAA.NDBC:GBIF1:1,2019-05-09T20:00:00Z,25.3780,-81.0290,1.5,24.51,11111222 
ENP,ioos.station.NOAA.NDBC:GBIF1:1,2019-05-09T21:00:00Z,25.3780,-81.0290,1.5,26.2,11111222 
ENP,ioos.station.NOAA.NDBC:GBIF1:1,2019-05-09T22:00:00Z,25.3780,-81.0290,1.5,27.77,11111222 
ENP,ioos.station.NOAA.NDBC:GBIF1:1,2019-05-09T23:00:00Z,25.3780,-81.0290,1.5,28.98,11111222 
ENP,ioos.station.NOAA.NDBC:GBIF1:1,2019-05-10T00:00:00Z,25.3780,-81.0290,1.5,29.49,11111222 
ENP,ioos.station.NOAA.NDBC:GBIF1:1,2019-05-10T01:00:00Z,25.3780,-81.0290,1.5,29.27,11111222 
ENP,ioos.station.NOAA.NDBC:GBIF1:1,2019-05-10T03:00:00Z,25.3780,-81.0290,1.5,27.0,11111222 
ENP,ioos.station.NOAA.NDBC:GBIF1:1,2019-05-10T04:00:00Z,25.3780,-81.0290,1.5,25.14,11111222 
ENP,ioos.station.NOAA.NDBC:GBIF1:1,2019-05-10T05:00:00Z,25.3780,-81.0290,1.5,22.41,11111222 
ENP,ioos.station.NOAA.NDBC:GBIF1:1,2019-05-10T06:00:00Z,25.3780,-81.0290,1.5,20.27,11111222 
ENP,ioos.station.NOAA.NDBC:GBIF1:1,2019-05-10T07:00:00Z,25.3780,-81.0290,1.5,19.45,11111222 
ENP,ioos.station.NOAA.NDBC:GBIF1:1,2019-05-10T08:00:00Z,25.3780,-81.0290,1.5,19.04,11111222 
ENP,ioos.station.NOAA.NDBC:GBIF1:1,2019-05-10T09:00:00Z,25.3780,-81.0290,1.5,19.04,11111222 
ENP,ioos.station.NOAA.NDBC:GBIF1:1,2019-05-10T10:00:00Z,25.3780,-81.0290,1.5,19.11,11111222 
ENP,ioos.station.NOAA.NDBC:GBIF1:1,2019-05-10T11:00:00Z,25.3780,-81.0290,1.5,21.44,11111222 
ENP,ioos.station.NOAA.NDBC:GBIF1:1,2019-05-10T12:00:00Z,25.3780,-81.0290,1.5,23.39,11111222 
ENP,ioos.station.NOAA.NDBC:GBIF1:1,2019-05-10T13:00:00Z,25.3780,-81.0290,1.5,24.93,11111222 
ENP,ioos.station.NOAA.NDBC:GBIF1:1,2019-05-10T14:00:00Z,25.3780,-81.0290,1.5,25.71,11111222 
ENP,ioos.station.NOAA.NDBC:GBIF1:1,2019-05-10T15:00:00Z,25.3780,-81.0290,1.5,24.16,11111222 
ENP,ioos.station.NOAA.NDBC:GBIF1:1,2019-05-10T16:00:00Z,25.3780,-81.0290,1.5,22.55,11111222 
ENP,ioos.station.NOAA.NDBC:GBIF1:1,2019-05-10T17:00:00Z,25.3780,-81.0290,1.5,22.41,11111222 
ENP,ioos.station.NOAA.NDBC:GBIF1:1,2019-05-10T18:00:00Z,25.3780,-81.0290,1.5,21.65,11111222 
ENP,ioos.station.NOAA.NDBC:GBIF1:1,2019-05-10T19:00:00Z,25.3780,-81.0290,1.5,21.16,11111222 
ENP,ioos.station.NOAA.NDBC:GBIF1:1,2019-05-10T20:00:00Z,25.3780,-81.0290,1.5,22.06,11111222 
ENP,ioos.station.NOAA.NDBC:GBIF1:1,2019-05-10T21:00:00Z,25.3780,-81.0290,1.5,23.39,11111222 
ENP,ioos.station.NOAA.NDBC:GBIF1:1,2019-05-10T22:00:00Z,25.3780,-81.0290,1.5,25.07,11111222 
ENP,ioos.station.NOAA.NDBC:GBIF1:1,2019-05-10T23:00:00Z,25.3780,-81.0290,1.5,26.98,11111222 
ENP,ioos.station.NOAA.NDBC:GBIF1:1,2019-05-11T00:00:00Z,25.3780,-81.0290,1.5,27.98,11111222 
ENP,ioos.station.NOAA.NDBC:GBIF1:1,2019-05-11T01:00:00Z,25.3780,-81.0290,1.5,28.5,11111222 
ENP,ioos.station.NOAA.NDBC:GBIF1:1,2019-05-11T02:00:00Z,25.3780,-81.0290,1.5,28.05,11111222 
ENP,ioos.station.NOAA.NDBC:GBIF1:1,2019-05-11T03:00:00Z,25.3780,-81.0290,1.5,26.8,11111222 
ENP,ioos.station.NOAA.NDBC:GBIF1:1,2019-05-11T04:00:00Z,25.3780,-81.0290,1.5,24.86,11111222 
ENP,ioos.station.NOAA.NDBC:GBIF1:1,2019-05-11T05:00:00Z,25.3780,-81.0290,1.5,23.18,11111222 
ENP,ioos.station.NOAA.NDBC:GBIF1:1,2019-05-11T06:00:00Z,25.3780,-81.0290,1.5,21.37,11111222 
ENP,ioos.station.NOAA.NDBC:GBIF1:1,2019-05-11T07:00:00Z,25.3780,-81.0290,1.5,20.27,11111222 
ENP,ioos.station.NOAA.NDBC:GBIF1:1,2019-05-11T08:00:00Z,25.3780,-81.0290,1.5,19.65,11111222 
ENP,ioos.station.NOAA.NDBC:GBIF1:1,2019-05-11T09:00:00Z,25.3780,-81.0290,1.5,18.56,11111222 
ENP,ioos.station.NOAA.NDBC:GBIF1:1,2019-05-11T10:00:00Z,25.3780,-81.0290,1.5,18.09,11111222 
ENP,ioos.station.NOAA.NDBC:GBIF1:1,2019-05-11T11:00:00Z,25.3780,-81.0290,1.5,18.36,11111222 
ENP,ioos.station.NOAA.NDBC:GBIF1:1,2019-05-11T12:00:00Z,25.3780,-81.0290,1.5,20.34,11111222 
ENP,ioos.station.NOAA.NDBC:GBIF1:1,2019-05-11T13:00:00Z,25.3780,-81.0290,1.5,22.4,11111222 
ENP,ioos.station.NOAA.NDBC:GBIF1:1,2019-05-11T14:00:00Z,25.3780,-81.0290,1.5,24.5,11111222 
ENP,ioos.station.NOAA.NDBC:GBIF1:1,2019-05-11T15:00:00Z,25.3780,-81.0290,1.5,25.8,11111222 
ENP,ioos.station.NOAA.NDBC:GBIF1:1,2019-05-11T16:00:00Z,25.3780,-81.0290,1.5,24.2,11111222 
ENP,ioos.station.NOAA.NDBC:GBIF1:1,2019-05-11T17:00:00Z,25.3780,-81.0290,1.5,22.3,11111222 
ENP,ioos.station.NOAA.NDBC:GBIF1:1,2019-05-11T18:00:00Z,25.3780,-81.0290,1.5,21.9,11111222 
ENP,ioos.station.NOAA.NDBC:GBIF1:1,2019-05-11T19:00:00Z,25.3780,-81.0290,1.5,20.5,11111222 
ENP,ioos.station.NOAA.NDBC:GBIF1:1,2019-05-11T20:00:00Z,25.3780,-81.0290,1.5,20.3,11111222 
ENP,ioos.station.NOAA.NDBC:GBIF1:1,2019-05-11T21:00:00Z,25.3780,-81.0290,1.5,20.2,11111222 
ENP,ioos.station.NOAA.NDBC:GBIF1:1,2019-05-11T22:00:00Z,25.3780,-81.0290,1.5,21.4,11111222 
ENP,ioos.station.NOAA.NDBC:GBIF1:1,2019-05-11T23:00:00Z,25.3780,-81.0290,1.5,23.5,11111222 
ENP,ioos.station.NOAA.NDBC:GBIF1:1,2019-05-12T00:00:00Z,25.3780,-81.0290,1.5,25.2,11111222 
ENP,ioos.station.NOAA.NDBC:GBIF1:1,2019-05-12T01:00:00Z,25.3780,-81.0290,1.5,26.8,11111222 
ENP,ioos.station.NOAA.NDBC:GBIF1:1,2019-05-12T02:00:00Z,25.3780,-81.0290,1.5,27.7,11111222 
ENP,ioos.station.NOAA.NDBC:GBIF1:1,2019-05-12T03:00:00Z,25.3780,-81.0290,1.5,27.8,11111222 